NW Arkansas Airport, AR

10:09 AM CDT on July 24, 2017 (GMT -0500)
Northwest Arkansas Regional

Weather History for KXNA - May, 2013

Change the Weather History Date:

Thursday, May 9, 2013

  Actual Average (KVBT) Record (KVBT)
Temperature  
Mean Temperature 65 °F -  
Max Temperature 73 °F 75 °F 87 °F (1962)
Min Temperature 57 °F 50 °F 34 °F (1980)
Growing Degree Days 15 (Base 50)    
Moisture  
Dew Point 59 °F    
Average Humidity 91    
Maximum Humidity 100    
Minimum Humidity 59    
Precipitation  
Precipitation 1.54 in - - ()
Sea Level Pressure  
Sea Level Pressure 29.94 in    
Wind  
Wind Speed 8 mph (South)    
Max Wind Speed 18 mph    
Max Gust Speed 33 mph    
Visibility 6 miles    
Events Rain , Thunderstorm    
Averages and records for this station are not official NWS values.
T = Trace of Precipitation, MM = Missing Value Source: NWS Daily Summary

Daily Weather History Graph

Daily Weather History Graph

Search for Another Location

Airport or City:

Trip Planner

Search our weather history database for the weather conditions in past years. The results will help you decide how hot, cold, wet, or windy it might be!

Date:

Astronomy

May. 09, 2013 Rise Set
Actual Time 6:15 AM CDT 8:12 PM CDT
Civil Twilight 5:47 AM CDT 8:40 PM CDT
Nautical Twilight 5:13 AM CDT 9:14 PM CDT
Astronomical Twilight 4:36 AM CDT 9:51 PM CDT
Moon 5:59 AM CDT (5/9) 8:07 PM CDT (5/9)
Length of Visible Light 14h 52m
Length of Day
13h 56m
Waning Crescent, 0% of the Moon is Illuminated
May 9
Waning Crescent
May 9
New
May 17
First Quarter
May 24
Full
May 31
Last Quarter

Hourly Weather History & Observations

Time (CDT) Temp. Dew Point Humidity Pressure Visibility Wind Dir Wind Speed Gust Speed Precip Events Conditions
12:53 AM 62.1 °F 55.9 °F 80% 29.94 in 10.0 mi Calm Calm - N/A   Scattered Clouds
1:53 AM 64.0 °F 57.0 °F 78% 29.92 in 10.0 mi South 8.1 mph - N/A   Mostly Cloudy
2:53 AM 64.0 °F 55.9 °F 75% 29.90 in 10.0 mi SW 12.7 mph - 0.00 in Rain Light Rain
3:53 AM 61.0 °F 55.9 °F 83% 29.91 in 10.0 mi South 9.2 mph - 0.05 in Rain Light Rain
4:53 AM 59.0 °F 57.0 °F 93% 29.88 in 10.0 mi SSE 4.6 mph - 0.03 in   Mostly Cloudy
5:53 AM 59.0 °F 57.0 °F 93% 29.88 in 10.0 mi Calm Calm - N/A   Overcast
6:20 AM 57.2 °F 57.2 °F 100% 29.96 in 1.5 mi West 18.4 mph 33.4 mph 0.23 in Rain Heavy Rain
6:29 AM 57.2 °F 57.2 °F 100% 29.97 in 3.0 mi West 15.0 mph - 0.27 in Rain Rain
6:53 AM 57.9 °F 57.9 °F 100% 29.98 in 5.0 mi WSW 11.5 mph - 0.33 in Rain Rain
7:06 AM 57.2 °F 57.2 °F 100% 30.01 in 5.0 mi SW 9.2 mph - 0.03 in Rain Rain
7:27 AM 57.2 °F 57.2 °F 100% 30.00 in 4.0 mi SSW 6.9 mph - 0.08 in Rain Rain
7:53 AM 57.0 °F 57.0 °F 100% 29.94 in 6.0 mi South 13.8 mph - 0.11 in Rain Light Rain
8:12 AM 57.2 °F 57.2 °F 100% 29.94 in 10.0 mi SSE 16.1 mph 25.3 mph 0.01 in Rain Light Rain
8:53 AM 57.9 °F 57.0 °F 97% 29.93 in 10.0 mi SSW 11.5 mph - 0.01 in   Scattered Clouds
9:53 AM 59.0 °F 55.9 °F 90% 29.93 in 10.0 mi WSW 4.6 mph - N/A   Clear
10:53 AM 64.0 °F 57.0 °F 78% 29.94 in 10.0 mi SW 11.5 mph 19.6 mph N/A   Mostly Cloudy
12:53 PM 72.0 °F 59.0 °F 64% 29.92 in 10.0 mi WSW 8.1 mph - N/A   Partly Cloudy
1:53 PM 73.0 °F 57.9 °F 59% 29.93 in 10.0 mi SSW 16.1 mph - N/A   Mostly Cloudy
2:53 PM 72.0 °F 57.9 °F 61% 29.93 in 10.0 mi SW 6.9 mph - N/A   Mostly Cloudy
3:53 PM 73.0 °F 57.9 °F 59% 29.92 in 10.0 mi SW 10.4 mph - N/A   Mostly Cloudy
4:53 PM 70.0 °F 59.0 °F 68% 29.90 in 10.0 mi SSW 4.6 mph - N/A   Overcast
5:16 PM 66.2 °F 60.8 °F 83% 29.95 in 2.5 mi SSW 12.7 mph - 0.05 in Rain Heavy Rain
5:26 PM 64.4 °F 62.6 °F 94% 29.95 in 1.5 mi South 15.0 mph 20.7 mph 0.12 in Rain Heavy Rain
5:31 PM 64.4 °F 62.6 °F 94% 29.94 in 2.0 mi South 9.2 mph 20.7 mph 0.13 in Rain Light Rain
5:51 PM 64.4 °F 62.6 °F 94% 29.94 in 4.0 mi South 6.9 mph - 0.17 in Rain Light Rain
5:53 PM 64.0 °F 63.0 °F 96% 29.92 in 4.0 mi South 5.8 mph - 0.17 in Rain Light Rain
6:11 PM 64.4 °F 62.6 °F 94% 29.94 in 7.0 mi West 5.8 mph - 0.01 in Rain Light Rain
6:22 PM 64.4 °F 62.6 °F 94% 29.94 in 8.0 mi South 3.5 mph - 0.01 in Rain Light Rain
6:30 PM 62.6 °F 62.6 °F 100% 29.93 in 4.0 mi South 6.9 mph - 0.02 in Rain Light Rain
6:37 PM 62.6 °F 60.8 °F 94% 29.93 in 1.8 mi South 10.4 mph - 0.10 in Rain Heavy Rain
6:51 PM 62.6 °F 62.6 °F 100% 29.93 in 4.0 mi SSW 3.5 mph - 0.18 in Rain Light Rain
7:01 PM 62.6 °F 62.6 °F 100% 29.94 in 4.0 mi Calm Calm - 0.01 in Rain Light Rain
7:07 PM 62.6 °F 62.6 °F 100% 29.94 in 1.8 mi Calm Calm - 0.03 in Rain Rain
7:16 PM 62.6 °F 60.8 °F 94% 29.94 in 2.0 mi Calm Calm - 0.04 in Rain Light Rain
7:36 PM 60.8 °F 60.8 °F 100% 29.94 in 1.0 mi East 5.8 mph - 0.32 in Rain Heavy Rain
7:44 PM 60.8 °F 59.0 °F 94% 29.93 in 2.0 mi SE 12.7 mph - 0.36 in Rain Rain
7:53 PM 60.1 °F 60.1 °F 100% 29.92 in 0.8 mi SE 9.2 mph - 0.78 in Rain Heavy Rain
8:07 PM 60.8 °F 60.8 °F 100% 29.92 in 1.2 mi SE 15.0 mph 20.7 mph 0.37 in Rain Heavy Rain
9:00 PM 62.6 °F 62.6 °F 100% 29.95 in 1.2 mi SSE 9.2 mph 28.8 mph 0.05 in Rain Heavy Rain
9:04 PM 60.8 °F 60.8 °F 100% 29.96 in 3.0 mi SSE 6.9 mph - 0.05 in Rain Light Rain
9:53 PM 61.0 °F 61.0 °F 100% 29.94 in 10.0 mi SSE 5.8 mph - 0.06 in   Overcast
10:44 PM 60.8 °F 60.8 °F 100% 29.96 in 10.0 mi Calm Calm - N/A   Overcast
10:53 PM 60.1 °F 60.1 °F 100% 29.94 in 10.0 mi SE 4.6 mph - N/A Thunderstorm Overcast
11:46 PM 60.8 °F 60.8 °F 100% 29.94 in 7.0 mi South 9.2 mph - 0.11 in Rain , Thunderstorm Light Thunderstorms and Rain